TimeEST,TemperatureF,Dew PointF,Humidity,Sea Level PressureIn,VisibilityMPH,Wind Direction,Wind SpeedMPH,Gust SpeedMPH,PrecipitationIn,Events,Conditions,WindDirDegrees,DateUTC
1:53 AM,28.9,26.1,89,30.30,10.0,Calm,Calm,-,N/A,,Clear,0,2012-12-04 06:53:00
2:53 AM,30.0,27.0,88,30.30,10.0,Calm,Calm,-,N/A,,Clear,0,2012-12-04 07:53:00
3:53 AM,30.9,28.0,89,30.30,10.0,Calm,Calm,-,N/A,,Scattered Clouds,0,2012-12-04 08:53:00
4:53 AM,32.0,30.0,92,30.30,10.0,Calm,Calm,-,N/A,,Partly Cloudy,0,2012-12-04 09:53:00
6:53 AM,42.1,41.0,96,30.31,9.0,Calm,Calm,-,N/A,,Overcast,0,2012-12-04 11:53:00
7:53 AM,48.0,46.0,93,30.31,7.0,SE,3.5,-,0.00,,Overcast,130,2012-12-04 12:53:00
8:44 AM,51.8,48.2,88,30.31,2.5,Calm,Calm,-,0.02,Rain,Light Rain,0,2012-12-04 13:44:00
8:53 AM,51.1,48.9,92,30.32,3.0,Calm,Calm,-,0.02,Rain,Light Rain,0,2012-12-04 13:53:00
9:04 AM,51.8,48.2,88,30.31,2.5,SE,3.5,-,0.00,Rain,Light Rain,130,2012-12-04 14:04:00
9:26 AM,53.6,50.0,88,30.31,3.0,SSE,4.6,-,0.01,,Overcast,150,2012-12-04 14:26:00
9:53 AM,54.0,52.0,93,30.31,3.0,SSE,5.8,-,0.01,,Overcast,160,2012-12-04 14:53:00
10:02 AM,53.6,51.8,94,30.31,2.0,SSE,5.8,-,0.01,Rain,Light Rain,160,2012-12-04 15:02:00
10:43 AM,55.4,53.6,94,30.29,3.0,South,6.9,-,0.02,Rain,Light Rain,170,2012-12-04 15:43:00
10:53 AM,55.9,53.1,90,30.29,4.0,SSE,8.1,-,0.02,,Overcast,160,2012-12-04 15:53:00
11:53 AM,55.9,54.0,93,30.26,5.0,South,9.2,-,0.00,,Overcast,170,2012-12-04 16:53:00
12:53 PM,57.9,55.0,90,30.24,6.0,South,11.5,16.1,N/A,,Overcast,170,2012-12-04 17:53:00
1:53 PM,57.0,54.0,89,30.22,6.0,South,8.1,-,N/A,,Mostly Cloudy,170,2012-12-04 18:53:00
2:53 PM,59.0,55.9,90,30.20,8.0,South,6.9,-,N/A,,Scattered Clouds,170,2012-12-04 19:53:00
3:19 PM,57.2,55.4,94,30.20,7.0,South,5.8,-,N/A,,Mostly Cloudy,190,2012-12-04 20:19:00
3:53 PM,55.9,54.0,93,30.19,5.0,South,6.9,-,N/A,,Mostly Cloudy,170,2012-12-04 20:53:00
4:00 PM,55.4,53.6,94,30.19,4.0,South,8.1,-,N/A,,Scattered Clouds,180,2012-12-04 21:00:00
4:08 PM,55.4,53.6,94,30.18,4.0,South,8.1,-,N/A,,Mostly Cloudy,170,2012-12-04 21:08:00
4:53 PM,55.9,54.0,93,30.18,5.0,South,8.1,-,N/A,,Mostly Cloudy,170,2012-12-04 21:53:00
5:41 PM,55.4,55.4,100,30.16,5.0,South,8.1,-,N/A,,Mostly Cloudy,170,2012-12-04 22:41:00
5:53 PM,55.9,55.0,97,30.16,5.0,South,6.9,-,N/A,,Scattered Clouds,170,2012-12-04 22:53:00
6:53 PM,57.0,55.0,93,30.15,7.0,South,6.9,-,N/A,,Mostly Cloudy,170,2012-12-04 23:53:00
7:35 PM,55.4,53.6,94,30.14,7.0,South,8.1,-,N/A,,Partly Cloudy,170,2012-12-05 00:35:00
7:53 PM,55.9,54.0,93,30.13,7.0,South,9.2,-,N/A,,Mostly Cloudy,170,2012-12-05 00:53:00
8:53 PM,57.0,54.0,89,30.11,7.0,South,8.1,-,0.01,,Mostly Cloudy,180,2012-12-05 01:53:00
9:25 PM,55.4,53.6,94,30.09,6.0,South,6.9,-,N/A,,Mostly Cloudy,190,2012-12-05 02:25:00
9:53 PM,55.9,55.0,97,30.09,6.0,SSW,8.1,-,N/A,,Overcast,200,2012-12-05 02:53:00
10:43 PM,55.4,53.6,94,30.07,6.0,SSW,5.8,-,N/A,,Scattered Clouds,200,2012-12-05 03:43:00
10:53 PM,55.0,54.0,96,30.07,6.0,South,5.8,-,N/A,,Scattered Clouds,190,2012-12-05 03:53:00
11:53 PM,55.0,53.1,93,30.04,7.0,SSW,9.2,-,N/A,,Clear,210,2012-12-05 04:53:00